,,Stat6,,Stat2,,Stat8,,Stat9,,Stat10,,Wind1,,Wind1,
time,status,PA1M_AVG,status,PR1M_SUM,status,RH1M_AVG,status,SR1M_AVG,status,TA1M_AVG,status,W1dAve1m,status,W1sAve1m,
2009-01-28, 00:00:00,VALID,917.539,VALID,0,VALID,93.1056,VALID,-0.0849042,VALID,20.5413,VALID,137,VALID,0.451853,
2009-01-28, 00:01:00,VALID,917.527,VALID,0,VALID,93.098,VALID,-0.101885,VALID,20.5508,VALID,134,VALID,0.974466,
2009-01-28, 00:02:00,VALID,917.516,VALID,0,VALID,93.2442,VALID,-0.0679233,VALID,20.5446,VALID,135,VALID,0.932292,
2009-01-28, 00:03:00,VALID,917.527,VALID,0,VALID,93.5151,VALID,-0.0849042,VALID,20.5248,VALID,137,VALID,1.23347,
2009-01-28, 00:04:00,VALID,917.525,VALID,0,VALID,93.5939,VALID,-0.0849042,VALID,20.5121,VALID,132,VALID,0.813953,
2009-01-28, 00:05:00,VALID,917.515,VALID,0,VALID,93.557,VALID,-0.101885,VALID,20.5121,VALID,138,VALID,1.29902,
2009-01-28, 00:06:00,VALID,917.514,VALID,0,VALID,93.6753,VALID,-0.101885,VALID,20.5186,VALID,131,VALID,1.68992,
2009-01-28, 00:07:00,VALID,917.516,VALID,0,VALID,93.7605,VALID,-0.0849042,VALID,20.5118,VALID,136,VALID,2.03289,
2009-01-28, 00:08:00,VALID,917.502,VALID,0,VALID,93.9118,VALID,-0.0849042,VALID,20.4924,VALID,132,VALID,0.959223,
2009-01-28, 00:09:00,VALID,917.486,VALID,0,VALID,94.1165,VALID,-0.0849042,VALID,20.4732,VALID,133,VALID,1.18731,
2009-01-28, 00:10:00,VALID,917.483,VALID,0,VALID,94.3899,VALID,-0.0679233,VALID,20.4407,VALID,138,VALID,0.673147,
2009-01-28, 00:11:00,VALID,917.465,VALID,0,VALID,94.7142,VALID,-0.0849042,VALID,20.4047,VALID,142,VALID,0.618902,
2009-01-28, 00:12:00,VALID,917.452,VALID,0,VALID,94.9431,VALID,-0.101885,VALID,20.372,VALID,144,VALID,1.19283,
2009-01-28, 00:13:00,VALID,917.428,VALID,0,VALID,94.9482,VALID,-0.118866,VALID,20.3563,VALID,142,VALID,0.837109,
2009-01-28, 00:14:00,VALID,917.419,VALID,0,VALID,95.0461,VALID,-0.0849042,VALID,20.3366,VALID,141,VALID,0.735491,
2009-01-28, 00:15:00,VALID,917.396,VALID,0,VALID,95.1453,VALID,-0.0849042,VALID,20.3206,VALID,143,VALID,0.772249,
2009-01-28, 00:16:00,VALID,917.38,VALID,0,VALID,95.2152,VALID,-0.0849042,VALID,20.3076,VALID,141,VALID,0.756904,
2009-01-28, 00:17:00,VALID,917.379,VALID,0,VALID,95.2063,VALID,-0.0849042,VALID,20.2947,VALID,138,VALID,1.10956,
2009-01-28, 00:18:00,VALID,917.362,VALID,0,VALID,95.205,VALID,-0.0849042,VALID,20.2914,VALID,133,VALID,1.08418,
2009-01-28, 00:19:00,VALID,917.35,VALID,0,VALID,95.1745,VALID,-0.0849042,VALID,20.3011,VALID,148,VALID,0.705611,
2009-01-28, 00:20:00,VALID,917.353,VALID,0,VALID,95.1097,VALID,-0.0679233,VALID,20.3106,VALID,146,VALID,0.496354,
2009-01-28, 00:21:00,VALID,917.348,VALID,0,VALID,95.0385,VALID,-0.101885,VALID,20.3239,VALID,159,VALID,0.841667,
2009-01-28, 00:22:00,VALID,917.34,VALID,0,VALID,95.0168,VALID,-0.0339617,VALID,20.3263,VALID,150,VALID,0.659339,
2009-01-28, 00:23:00,VALID,917.331,VALID,0,VALID,95.0092,VALID,0,VALID,20.3353,VALID,150,VALID,0.351953,
2009-01-28, 00:24:00,VALID,917.331,VALID,0,VALID,95.0613,VALID,0.0169808,VALID,20.3188,VALID,141,VALID,1.22017,
2009-01-28, 00:25:00,VALID,917.321,VALID,0,VALID,95.2038,VALID,0,VALID,20.3058,VALID,143,VALID,0.623698,
2009-01-28, 00:26:00,VALID,917.322,VALID,0,VALID,95.3233,VALID,0.0169808,VALID,20.2899,VALID,136,VALID,0.477471,
2009-01-28, 00:27:00,VALID,917.323,VALID,0,VALID,95.5,VALID,0,VALID,20.2507,VALID,129,VALID,0.403201,
2009-01-28, 00:28:00,VALID,917.306,VALID,0,VALID,95.6666,VALID,0,VALID,20.2217,VALID,130,VALID,0.81955,
2009-01-28, 00:29:00,VALID,917.32,VALID,0,VALID,95.8866,VALID,0.0169808,VALID,20.1893,VALID,131,VALID,1.19844,
2009-01-28, 00:30:00,VALID,917.316,VALID,0,VALID,96.0252,VALID,0,VALID,20.1633,VALID,139,VALID,1.18445,
2009-01-28, 00:31:00,VALID,917.323,VALID,0,VALID,96.0774,VALID,0,VALID,20.1603,VALID,147,VALID,1.43007,
2009-01-28, 00:32:00,VALID,917.306,VALID,0,VALID,95.9998,VALID,0,VALID,20.1631,VALID,142,VALID,1.58507,
2009-01-28, 00:33:00,VALID,917.307,VALID,0,VALID,95.9337,VALID,0,VALID,20.1763,VALID,151,VALID,0.796875,
2009-01-28, 00:34:00,VALID,917.316,VALID,0,VALID,95.8357,VALID,-0.0169808,VALID,20.1833,VALID,143,VALID,1.11577,
2009-01-28, 00:35:00,VALID,917.31,VALID,0,VALID,95.8116,VALID,0,VALID,20.1858,VALID,142,VALID,0.669017,
2009-01-28, 00:36:00,VALID,917.303,VALID,0,VALID,95.7925,VALID,0,VALID,20.2055,VALID,148,VALID,1.04297,
2009-01-28, 00:37:00,VALID,917.313,VALID,0,VALID,95.7226,VALID,0.0169808,VALID,20.2047,VALID,148,VALID,1.0123,
2009-01-28, 00:38:00,VALID,917.3,VALID,0,VALID,95.7048,VALID,-0.101885,VALID,20.2165,VALID,144,VALID,0.841332,
2009-01-28, 00:39:00,VALID,917.299,VALID,0,VALID,95.5077,VALID,-0.0849042,VALID,20.21,VALID,142,VALID,1.59211,
2009-01-28, 00:40:00,VALID,917.311,VALID,0,VALID,95.3169,VALID,-0.0679233,VALID,20.226,VALID,145,VALID,1.34284,
2009-01-28, 00:41:00,VALID,917.298,VALID,0,VALID,95.0982,VALID,-0.0849042,VALID,20.2622,VALID,136,VALID,1.29688,
2009-01-28, 00:42:00,VALID,917.301,VALID,0,VALID,94.9418,VALID,-0.0679233,VALID,20.2752,VALID,138,VALID,1.2429,
2009-01-28, 00:43:00,VALID,917.288,VALID,0,VALID,94.7841,VALID,-0.101885,VALID,20.2847,VALID,143,VALID,0.726199,
2009-01-28, 00:44:00,VALID,917.279,VALID,0,VALID,94.5959,VALID,-0.101885,VALID,20.2847,VALID,140,VALID,1.22024,
2009-01-28, 00:45:00,VALID,917.258,VALID,0,VALID,94.3988,VALID,-0.101885,VALID,20.3109,VALID,137,VALID,1.39316,
2009-01-28, 00:46:00,VALID,917.236,VALID,0,VALID,94.1916,VALID,-0.135847,VALID,20.3266,VALID,135,VALID,1.78032,
2009-01-28, 00:47:00,VALID,917.205,VALID,0,VALID,94.0428,VALID,-0.0849042,VALID,20.3463,VALID,145,VALID,1.27344,
2009-01-28, 00:48:00,VALID,917.197,VALID,0,VALID,94.0135,VALID,-0.101885,VALID,20.3596,VALID,139,VALID,0.984375,
2009-01-28, 00:49:00,VALID,917.169,VALID,0,VALID,94.025,VALID,-0.101885,VALID,20.3498,VALID,139,VALID,0.733467,
2009-01-28, 00:50:00,VALID,917.174,VALID,0,VALID,94.0123,VALID,-0.118866,VALID,20.3433,VALID,139,VALID,0.569041,
2009-01-28, 00:51:00,VALID,917.17,VALID,0,VALID,94.0415,VALID,-0.101885,VALID,20.3433,VALID,138,VALID,0.616257,
2009-01-28, 00:52:00,VALID,917.157,VALID,0,VALID,94.0784,VALID,-0.101885,VALID,20.3401,VALID,130,VALID,0.936979,
2009-01-28, 00:53:00,VALID,917.153,VALID,0,VALID,94.0339,VALID,0,VALID,20.3291,VALID,135,VALID,1.83705,
2009-01-28, 00:54:00,VALID,917.149,VALID,0,VALID,93.922,VALID,0,VALID,20.3485,VALID,141,VALID,1.33125,
2009-01-28, 00:55:00,VALID,917.154,VALID,0,VALID,93.8342,VALID,0,VALID,20.3613,VALID,130,VALID,1.10305,
2009-01-28, 00:56:00,VALID,917.141,VALID,0,VALID,93.8584,VALID,0,VALID,20.358,VALID,113,VALID,0.773615,
2009-01-28, 00:57:00,VALID,917.14,VALID,0,VALID,93.9423,VALID,-0.0169808,VALID,20.3388,VALID,136,VALID,1.00254,
2009-01-28, 00:58:00,VALID,917.117,VALID,0,VALID,94.0924,VALID,-0.0169808,VALID,20.3223,VALID,139,VALID,0.328869,
2009-01-28, 00:59:00,VALID,917.109,VALID,0,VALID,94.2437,VALID,-0.0339617,VALID,20.3093,VALID,134,VALID,0.463481,
2009-01-28, 01:00:00,VALID,917.083,VALID,0,VALID,94.4459,VALID,-0.0169808,VALID,20.2866,VALID,121,VALID,0.937318,
2009-01-28, 01:01:00,VALID,917.071,VALID,0,VALID,94.6277,VALID,0,VALID,20.2577,VALID,139,VALID,0.76048,
2009-01-28, 01:02:00,VALID,917.062,VALID,0,VALID,94.7714,VALID,-0.0509425,VALID,20.2487,VALID,132,VALID,0.480923,
2009-01-28, 01:03:00,VALID,917.047,VALID,0,VALID,94.9088,VALID,-0.0339617,VALID,20.222,VALID,137,VALID,0.606585,
2009-01-28, 01:04:00,VALID,917.037,VALID,0,VALID,95.0817,VALID,-0.0339617,VALID,20.2052,VALID,131,VALID,0.890092,
2009-01-28, 01:05:00,VALID,917.014,VALID,0,VALID,95.1122,VALID,0,VALID,20.2023,VALID,138,VALID,0.75332,
2009-01-28, 01:06:00,VALID,917.007,VALID,0,VALID,95.0563,VALID,0,VALID,20.1893,VALID,136,VALID,1.38672,
2009-01-28, 01:07:00,VALID,917.001,VALID,0,VALID,95.1046,VALID,0,VALID,20.202,VALID,129,VALID,0.730035,
2009-01-28, 01:08:00,VALID,916.977,VALID,0,VALID,95.0944,VALID,0,VALID,20.1958,VALID,137,VALID,0.585417,
2009-01-28, 01:09:00,VALID,916.965,VALID,0,VALID,95.0919,VALID,0,VALID,20.1925,VALID,137,VALID,0.785511,
2009-01-28, 01:10:00,VALID,916.965,VALID,0,VALID,94.966,VALID,0.0339617,VALID,20.1925,VALID,141,VALID,0.944271,
2009-01-28, 01:11:00,VALID,916.947,VALID,0,VALID,94.9266,VALID,0.0169808,VALID,20.202,VALID,140,VALID,1.3988,
2009-01-28, 01:12:00,VALID,916.93,VALID,0,VALID,94.924,VALID,0,VALID,20.1893,VALID,136,VALID,0.895774,
2009-01-28, 01:13:00,VALID,916.91,VALID,0,VALID,94.9914,VALID,0.0169808,VALID,20.1795,VALID,141,VALID,0.662919,
2009-01-28, 01:14:00,VALID,916.884,VALID,0,VALID,94.9952,VALID,0.0169808,VALID,20.1566,VALID,155,VALID,1.37676,
2009-01-28, 01:15:00,VALID,916.877,VALID,0,VALID,95.0346,VALID,0,VALID,20.1601,VALID,137,VALID,0.988281,
2009-01-28, 01:16:00,VALID,916.85,VALID,0,VALID,95.0181,VALID,0.0339617,VALID,20.1406,VALID,141,VALID,1.41946,
2009-01-28, 01:17:00,VALID,916.828,VALID,0,VALID,95.0028,VALID,0,VALID,20.1306,VALID,137,VALID,1.18093,
2009-01-28, 01:18:01,VALID,916.801,VALID,0,VALID,95.0575,VALID,0,VALID,20.1241,VALID,132,VALID,0.762228,
2009-01-28, 01:19:00,VALID,916.803,VALID,0,VALID,95.1847,VALID,0,VALID,20.1141,VALID,137,VALID,1.08278,
2009-01-28, 01:20:00,VALID,916.791,VALID,0,VALID,95.2254,VALID,0,VALID,20.0882,VALID,134,VALID,1.61464,
2009-01-28, 01:21:00,VALID,916.774,VALID,0,VALID,95.2979,VALID,0.0169808,VALID,20.0784,VALID,112,VALID,0.520531,
2009-01-28, 01:22:00,VALID,916.763,VALID,0,VALID,95.378,VALID,0.0169808,VALID,20.0652,VALID,125,VALID,0.676054,
2009-01-28, 01:23:00,VALID,916.751,VALID,0,VALID,95.2394,VALID,-0.101885,VALID,20.07,VALID,122,VALID,1.2377,
2009-01-28, 01:24:00,VALID,916.741,VALID,0,VALID,95.1351,VALID,-0.0509425,VALID,20.0992,VALID,120,VALID,0.999805,
2009-01-28, 01:25:00,VALID,916.731,VALID,0,VALID,95.0194,VALID,-0.101885,VALID,20.1054,VALID,117,VALID,0.805575,
2009-01-28, 01:26:00,VALID,916.73,VALID,0,VALID,95.0817,VALID,-0.101885,VALID,20.1062,VALID,109,VALID,0.939098,
2009-01-28, 01:27:00,VALID,916.726,VALID,0,VALID,95.0944,VALID,-0.101885,VALID,20.0867,VALID,121,VALID,1.117,
2009-01-28, 01:28:01,VALID,916.701,VALID,0,VALID,95.0295,VALID,-0.0679233,VALID,20.0932,VALID,120,VALID,1.38535,
2009-01-28, 01:29:00,VALID,916.686,VALID,0,VALID,94.9901,VALID,-0.0849042,VALID,20.1059,VALID,114,VALID,1.16611,
2009-01-28, 01:30:00,VALID,916.678,VALID,0,VALID,95.0067,VALID,-0.0849042,VALID,20.1024,VALID,120,VALID,1.09542,
2009-01-28, 01:31:00,VALID,916.657,VALID,0,VALID,94.9558,VALID,-0.101885,VALID,20.0959,VALID,119,VALID,1.39426,
2009-01-28, 01:32:00,VALID,916.634,VALID,0,VALID,94.8681,VALID,-0.0679233,VALID,20.0984,VALID,109,VALID,1.15916,
2009-01-28, 01:33:00,VALID,916.626,VALID,0,VALID,94.8655,VALID,-0.0509425,VALID,20.0989,VALID,121,VALID,1.28292,
2009-01-28, 01:34:00,VALID,916.603,VALID,0,VALID,94.7969,VALID,-0.0849042,VALID,20.1189,VALID,133,VALID,1.51563,
2009-01-28, 01:35:00,VALID,916.587,VALID,0,VALID,94.807,VALID,-0.0679233,VALID,20.1084,VALID,115,VALID,0.69972,
2009-01-28, 01:36:01,VALID,916.563,VALID,0,VALID,94.7829,VALID,-0.0679233,VALID,20.1154,VALID,127,VALID,1.83947,
2009-01-28, 01:37:00,VALID,916.573,VALID,0,VALID,94.7434,VALID,-0.0339617,VALID,20.1122,VALID,131,VALID,1.74782,
2009-01-28, 01:38:00,VALID,916.566,VALID,0,VALID,94.7244,VALID,-0.101885,VALID,20.1354,VALID,132,VALID,1.45732,
2009-01-28, 01:39:00,VALID,916.537,VALID,0,VALID,94.7066,VALID,-0.0679233,VALID,20.1219,VALID,133,VALID,2.04649,
2009-01-28, 01:40:00,VALID,916.518,VALID,0,VALID,94.7155,VALID,-0.0849042,VALID,20.1251,VALID,128,VALID,1.61187,
2009-01-28, 01:41:00,VALID,916.508,VALID,0,VALID,94.7358,VALID,-0.0849042,VALID,20.1281,VALID,134,VALID,1.54478,
2009-01-28, 01:42:00,VALID,916.477,VALID,0,VALID,94.7854,VALID,-0.0679233,VALID,20.1221,VALID,129,VALID,1.61372,
2009-01-28, 01:43:00,VALID,916.455,VALID,0,VALID,94.8795,VALID,-0.0679233,VALID,20.1189,VALID,127,VALID,1.84938,
2009-01-28, 01:44:00,VALID,916.433,VALID,0,VALID,94.8261,VALID,-0.101885,VALID,20.1084,VALID,143,VALID,1.62798,
2009-01-28, 01:45:00,VALID,916.413,VALID,0,VALID,94.7956,VALID,-0.0849042,VALID,20.1254,VALID,137,VALID,1.32127,
2009-01-28, 01:46:01,VALID,916.393,VALID,0,VALID,94.8668,VALID,-0.0849042,VALID,20.1159,VALID,127,VALID,1.79251,
2009-01-28, 01:47:00,VALID,916.362,VALID,0,VALID,94.7358,VALID,-0.0849042,VALID,20.1224,VALID,147,VALID,1.87444,
2009-01-28, 01:48:00,VALID,916.351,VALID,0,VALID,94.6277,VALID,-0.101885,VALID,20.1414,VALID,139,VALID,1.5794,
2009-01-28, 01:49:01,VALID,916.339,VALID,0,VALID,94.0504,VALID,-0.0679233,VALID,20.2003,VALID,128,VALID,2.7731,
2009-01-28, 01:50:01,VALID,916.324,VALID,0,VALID,93.7211,VALID,-0.0679233,VALID,20.2844,VALID,134,VALID,2.10866,
2009-01-28, 01:51:00,VALID,916.311,VALID,0,VALID,93.8431,VALID,-0.0849042,VALID,20.2352,VALID,139,VALID,1.53604,
2009-01-28, 01:52:01,VALID,916.299,VALID,0,VALID,93.9805,VALID,-0.101885,VALID,20.2033,VALID,149,VALID,0.735263,
2009-01-28, 01:53:00,VALID,916.303,VALID,0,VALID,94.114,VALID,-0.101885,VALID,20.1933,VALID,150,VALID,1.29992,
2009-01-28, 01:54:00,VALID,916.295,VALID,0,VALID,94.1738,VALID,-0.0679233,VALID,20.1798,VALID,154,VALID,1.13938,
2009-01-28, 01:55:00,VALID,916.297,VALID,0,VALID,94.2729,VALID,-0.0849042,VALID,20.1636,VALID,148,VALID,1.42392,
2009-01-28, 01:56:00,VALID,916.289,VALID,0,VALID,94.3518,VALID,-0.0849042,VALID,20.1613,VALID,158,VALID,0.355373,
2009-01-28, 01:57:00,VALID,916.295,VALID,0,VALID,94.3429,VALID,-0.101885,VALID,20.1648,VALID,141,VALID,1.56574,
2009-01-28, 01:58:00,VALID,916.28,VALID,0,VALID,94.3543,VALID,-0.101885,VALID,20.1484,VALID,169,VALID,0.893102,
2009-01-28, 01:59:01,VALID,916.284,VALID,0,VALID,94.3976,VALID,-0.0679233,VALID,20.1421,VALID,159,VALID,1.09783,
2009-01-28, 02:00:00,VALID,916.282,VALID,0,VALID,94.4739,VALID,-0.0849042,VALID,20.1151,VALID,144,VALID,0.81875,
2009-01-28, 02:01:00,VALID,916.286,VALID,0,VALID,94.5476,VALID,-0.0679233,VALID,20.0989,VALID,178,VALID,0.24359,
2009-01-28, 02:02:01,VALID,916.297,VALID,0,VALID,94.6519,VALID,-0.0679233,VALID,20.0997,VALID,150,VALID,0.639535,
2009-01-28, 02:03:01,VALID,916.303,VALID,0,VALID,94.6481,VALID,-0.0679233,VALID,20.0962,VALID,180,VALID,0.263529,
2009-01-28, 02:04:01,VALID,916.283,VALID,0,VALID,94.6417,VALID,-0.0679233,VALID,20.0994,VALID,181,VALID,1.64316,
2009-01-28, 02:05:01,VALID,916.284,VALID,0,VALID,94.5896,VALID,-0.0679233,VALID,20.1186,VALID,172,VALID,1.42133,
2009-01-28, 02:06:00,VALID,916.272,VALID,0,VALID,94.5158,VALID,-0.0679233,VALID,20.1251,VALID,170,VALID,1.52455,
2009-01-28, 02:07:00,VALID,916.262,VALID,0,VALID,94.409,VALID,-0.101885,VALID,20.1519,VALID,176,VALID,0.935268,
2009-01-28, 02:08:01,VALID,916.245,VALID,0,VALID,94.2106,VALID,-0.0849042,VALID,20.1673,VALID,163,VALID,1.52188,
2009-01-28, 02:09:01,VALID,916.242,VALID,0,VALID,94.0441,VALID,-0.0679233,VALID,20.18,VALID,169,VALID,1.78239,
2009-01-28, 02:10:01,VALID,916.238,VALID,0,VALID,93.9423,VALID,-0.0339617,VALID,20.1868,VALID,146,VALID,1.03579,
2009-01-28, 02:11:01,VALID,916.227,VALID,0,VALID,93.9067,VALID,-0.101885,VALID,20.1803,VALID,166,VALID,1.05008,
2009-01-28, 02:12:01,VALID,916.215,VALID,0,VALID,93.9105,VALID,-0.101885,VALID,20.1876,VALID,155,VALID,1.20222,
2009-01-28, 02:13:01,VALID,916.204,VALID,0,VALID,93.9474,VALID,-0.101885,VALID,20.1381,VALID,156,VALID,1.92702,
2009-01-28, 02:14:01,VALID,916.197,VALID,0,VALID,93.7936,VALID,-0.0849042,VALID,20.1646,VALID,165,VALID,1.11701,
2009-01-28, 02:15:00,VALID,916.192,VALID,0,VALID,93.5863,VALID,-0.118866,VALID,20.2133,VALID,160,VALID,1.1471,
2009-01-28, 02:16:00,VALID,916.166,VALID,0,VALID,93.3981,VALID,-0.101885,VALID,20.2227,VALID,154,VALID,1.70703,
2009-01-28, 02:17:00,VALID,916.148,VALID,0,VALID,93.2887,VALID,-0.101885,VALID,20.2362,VALID,174,VALID,1.1529,
2009-01-28, 02:18:00,VALID,916.139,VALID,0,VALID,92.9174,VALID,-0.118866,VALID,20.2395,VALID,157,VALID,2.21271,
2009-01-28, 02:19:00,VALID,916.135,VALID,0,VALID,92.3999,VALID,-0.101885,VALID,20.3239,VALID,139,VALID,0.911337,
2009-01-28, 02:20:00,VALID,916.134,VALID,0,VALID,92.3109,VALID,-0.0679233,VALID,20.3431,VALID,142,VALID,1.04654,
2009-01-28, 02:21:00,VALID,916.122,VALID,0,VALID,92.4482,VALID,-0.0509425,VALID,20.3069,VALID,134,VALID,1.4109,
2009-01-28, 02:22:00,VALID,916.13,VALID,0,VALID,92.5245,VALID,-0.101885,VALID,20.3044,VALID,126,VALID,1.0505,
2009-01-28, 02:23:00,VALID,916.122,VALID,0,VALID,92.5754,VALID,-0.0339617,VALID,20.2509,VALID,126,VALID,1.27883,
2009-01-28, 02:24:00,VALID,916.132,VALID,0,VALID,92.4711,VALID,-0.0339617,VALID,20.2282,VALID,140,VALID,1.46857,
2009-01-28, 02:25:00,VALID,916.127,VALID,0,VALID,92.2218,VALID,-0.0169808,VALID,20.2834,VALID,143,VALID,1.41317,
2009-01-28, 02:26:00,VALID,916.135,VALID,0,VALID,92.0349,VALID,-0.0169808,VALID,20.335,VALID,137,VALID,1.37519,
2009-01-28, 02:27:00,VALID,916.122,VALID,0,VALID,91.8798,VALID,0,VALID,20.3707,VALID,108,VALID,0.780134,
2009-01-28, 02:28:00,VALID,916.152,VALID,0,VALID,91.745,VALID,-0.0169808,VALID,20.3772,VALID,112,VALID,0.0128348,
2009-01-28, 02:29:00,VALID,916.149,VALID,0,VALID,91.7437,VALID,-0.0169808,VALID,20.3937,VALID,121,VALID,0.150618,
2009-01-28, 02:30:00,VALID,916.15,VALID,0,VALID,91.6929,VALID,0,VALID,20.3999,VALID,108,VALID,0.032269,
2009-01-28, 02:31:00,VALID,916.149,VALID,0,VALID,91.7247,VALID,-0.0169808,VALID,20.3875,VALID,108,VALID,0.886052,
2009-01-28, 02:32:00,VALID,916.133,VALID,0,VALID,91.7933,VALID,0,VALID,20.358,VALID,108,VALID,1.00763,
2009-01-28, 02:33:00,VALID,916.123,VALID,0,VALID,91.4373,VALID,-0.0169808,VALID,20.3742,VALID,131,VALID,1.76472,
2009-01-28, 02:34:00,VALID,916.119,VALID,0,VALID,91.0545,VALID,0.0339617,VALID,20.4356,VALID,123,VALID,1.24809,
2009-01-28, 02:35:00,VALID,916.11,VALID,0,VALID,90.7887,VALID,0.0169808,VALID,20.4835,VALID,133,VALID,1.49423,
2009-01-28, 02:36:00,VALID,916.092,VALID,0,VALID,90.5573,VALID,0,VALID,20.5235,VALID,143,VALID,1.54948,
2009-01-28, 02:37:00,VALID,916.07,VALID,0,VALID,90.3233,VALID,0.0509425,VALID,20.5517,VALID,144,VALID,1.48047,
2009-01-28, 02:38:00,VALID,916.074,VALID,0,VALID,90.1415,VALID,-0.0849042,VALID,20.5832,VALID,138,VALID,1.19049,
2009-01-28, 02:39:00,VALID,916.068,VALID,0,VALID,89.9457,VALID,-0.101885,VALID,20.5797,VALID,135,VALID,1.32776,
2009-01-28, 02:40:00,VALID,916.054,VALID,0,VALID,89.8872,VALID,-0.0509425,VALID,20.599,VALID,133,VALID,0.585029,
2009-01-28, 02:41:00,VALID,916.045,VALID,0,VALID,89.8554,VALID,-0.118866,VALID,20.5992,VALID,136,VALID,0.724864,
2009-01-28, 02:42:00,VALID,916.053,VALID,0,VALID,89.9584,VALID,-0.101885,VALID,20.5795,VALID,135,VALID,1.42578,
2009-01-28, 02:43:00,VALID,916.057,VALID,0,VALID,90.1339,VALID,-0.0849042,VALID,20.5697,VALID,128,VALID,1.30564,
2009-01-28, 02:44:00,VALID,916.061,VALID,0,VALID,90.1529,VALID,-0.118866,VALID,20.5573,VALID,134,VALID,1.59673,
2009-01-28, 02:45:00,VALID,916.038,VALID,0,VALID,90.1593,VALID,-0.101885,VALID,20.5665,VALID,132,VALID,0.893169,
2009-01-28, 02:46:00,VALID,916.046,VALID,0,VALID,90.2356,VALID,-0.0849042,VALID,20.5473,VALID,147,VALID,0.725675,
2009-01-28, 02:47:00,VALID,916.032,VALID,0,VALID,90.3971,VALID,-0.0849042,VALID,20.5146,VALID,132,VALID,0.733648,
2009-01-28, 02:48:00,VALID,916.026,VALID,0,VALID,90.5929,VALID,-0.0679233,VALID,20.4759,VALID,127,VALID,0.714286,
2009-01-28, 02:49:00,VALID,916.017,VALID,0,VALID,90.776,VALID,-0.0679233,VALID,20.4299,VALID,134,VALID,0.891036,
2009-01-28, 02:50:00,VALID,916.01,VALID,0,VALID,90.8638,VALID,-0.0849042,VALID,20.4302,VALID,130,VALID,1.0957,
2009-01-28, 02:51:00,VALID,916.009,VALID,0,VALID,90.935,VALID,-0.101885,VALID,20.4147,VALID,127,VALID,1.00056,
2009-01-28, 02:52:00,VALID,916.006,VALID,0,VALID,90.9032,VALID,-0.101885,VALID,20.405,VALID,134,VALID,1.60608,
2009-01-28, 02:53:00,VALID,916.015,VALID,0,VALID,90.8294,VALID,0.0339617,VALID,20.4157,VALID,135,VALID,1.5018,
2009-01-28, 02:54:00,VALID,916.017,VALID,0,VALID,90.8129,VALID,0.0169808,VALID,20.4356,VALID,130,VALID,1.60356,
2009-01-28, 02:55:00,VALID,916.009,VALID,0,VALID,90.6425,VALID,-0.0169808,VALID,20.4781,VALID,120,VALID,1.51438,
2009-01-28, 02:56:00,VALID,916.002,VALID,0,VALID,90.4251,VALID,0,VALID,20.5203,VALID,134,VALID,1.01399,
2009-01-28, 02:57:00,VALID,915.998,VALID,0,VALID,90.1924,VALID,0.0169808,VALID,20.543,VALID,142,VALID,1.8378,
2009-01-28, 02:58:00,VALID,915.99,VALID,0,VALID,89.98,VALID,0.0339617,VALID,20.5779,VALID,139,VALID,1.20561,
2009-01-28, 02:59:00,VALID,915.981,VALID,0,VALID,89.9177,VALID,0,VALID,20.5847,VALID,150,VALID,1.48313,
2009-01-28, 03:00:00,VALID,915.953,VALID,0,VALID,89.8732,VALID,0.0339617,VALID,20.5879,VALID,143,VALID,1.04847,
2009-01-28, 03:01:00,VALID,915.943,VALID,0,VALID,89.8935,VALID,0.0339617,VALID,20.5941,VALID,132,VALID,0.657552,
2009-01-28, 03:02:00,VALID,915.931,VALID,0,VALID,89.8948,VALID,0.0339617,VALID,20.5814,VALID,148,VALID,1.28925,
2009-01-28, 03:03:00,VALID,915.926,VALID,0,VALID,90.0741,VALID,0.0679233,VALID,20.5482,VALID,156,VALID,0.824963,
2009-01-28, 03:04:00,VALID,915.927,VALID,0,VALID,90.2229,VALID,0.0339617,VALID,20.523,VALID,146,VALID,0.69549,
2009-01-28, 03:05:00,VALID,915.939,VALID,0,VALID,90.35,VALID,0,VALID,20.4973,VALID,108,VALID,0.840014,
2009-01-28, 03:06:00,VALID,915.945,VALID,0,VALID,90.4848,VALID,0.0169808,VALID,20.4541,VALID,93,VALID,0.462984,
2009-01-28, 03:07:00,VALID,915.963,VALID,0,VALID,90.6768,VALID,0.0339617,VALID,20.4354,VALID,100,VALID,0.182664,
2009-01-28, 03:08:00,VALID,915.963,VALID,0,VALID,90.9108,VALID,-0.0679233,VALID,20.3915,VALID,112,VALID,0.498611,
2009-01-28, 03:09:00,VALID,915.961,VALID,0,VALID,91.1829,VALID,-0.0679233,VALID,20.3363,VALID,115,VALID,0.379207,
2009-01-28, 03:10:00,VALID,915.95,VALID,0,VALID,91.3953,VALID,-0.0849042,VALID,20.2936,VALID,125,VALID,0.568359,
2009-01-28, 03:11:00,VALID,915.932,VALID,0,VALID,91.586,VALID,-0.0679233,VALID,20.2871,VALID,126,VALID,0.722842,
2009-01-28, 03:12:00,VALID,915.929,VALID,0,VALID,91.7259,VALID,-0.0679233,VALID,20.2712,VALID,137,VALID,0.401042,
2009-01-28, 03:13:00,VALID,915.914,VALID,0,VALID,91.8582,VALID,-0.0849042,VALID,20.2577,VALID,145,VALID,0.189732,
2009-01-28, 03:14:00,VALID,915.917,VALID,0,VALID,92.0438,VALID,-0.0509425,VALID,20.2352,VALID,145,VALID,0.0414063,
2009-01-28, 03:15:00,VALID,915.922,VALID,0,VALID,92.2435,VALID,-0.101885,VALID,20.2327,VALID,145,VALID,0,
2009-01-28, 03:16:00,VALID,915.915,VALID,0,VALID,92.4418,VALID,-0.0849042,VALID,20.21,VALID,151,VALID,0.500191,
2009-01-28, 03:17:00,VALID,915.912,VALID,0,VALID,92.5728,VALID,-0.101885,VALID,20.1741,VALID,149,VALID,0.688953,
2009-01-28, 03:18:00,VALID,915.915,VALID,0,VALID,92.8042,VALID,-0.101885,VALID,20.1384,VALID,145,VALID,1.07156,
2009-01-28, 03:19:00,VALID,915.91,VALID,0,VALID,92.9874,VALID,-0.0849042,VALID,20.1249,VALID,138,VALID,0.994318,
2009-01-28, 03:20:00,VALID,915.923,VALID,0,VALID,93.1094,VALID,-0.0169808,VALID,20.1114,VALID,153,VALID,0.860283,
2009-01-28, 03:21:00,VALID,915.941,VALID,0,VALID,93.2073,VALID,-0.101885,VALID,20.1157,VALID,166,VALID,0.295833,
2009-01-28, 03:22:00,VALID,915.936,VALID,0,VALID,93.2379,VALID,-0.101885,VALID,20.1251,VALID,160,VALID,0.473633,
2009-01-28, 03:23:00,VALID,915.949,VALID,0,VALID,93.2506,VALID,-0.0339617,VALID,20.1279,VALID,146,VALID,0.999818,
2009-01-28, 03:24:00,VALID,915.955,VALID,0,VALID,93.3714,VALID,-0.0679233,VALID,20.1406,VALID,150,VALID,0.900391,
2009-01-28, 03:25:00,VALID,915.96,VALID,0,VALID,93.4973,VALID,-0.0509425,VALID,20.1471,VALID,139,VALID,0.515253,
2009-01-28, 03:26:00,VALID,915.959,VALID,0,VALID,93.6753,VALID,0,VALID,20.1403,VALID,148,VALID,0.808222,
2009-01-28, 03:27:00,VALID,915.961,VALID,0,VALID,93.9525,VALID,-0.0509425,VALID,20.1341,VALID,144,VALID,0.993304,
2009-01-28, 03:28:00,VALID,915.949,VALID,0,VALID,94.1763,VALID,-0.0169808,VALID,20.1441,VALID,150,VALID,0.616616,
2009-01-28, 03:29:00,VALID,915.952,VALID,0,VALID,94.3899,VALID,-0.0339617,VALID,20.1374,VALID,143,VALID,1.17618,
2009-01-28, 03:30:00,VALID,915.949,VALID,0,VALID,94.4624,VALID,-0.0679233,VALID,20.1179,VALID,175,VALID,0.53497,
2009-01-28, 03:31:00,VALID,915.93,VALID,0,VALID,94.573,VALID,0,VALID,20.1049,VALID,188,VALID,0.162016,